Regional Weather Roundup
Issued by NWS

Home | Current Version | Previous Version | Text Only | Print | Product List | Glossary Off
Versions: 1 2 3 4 5 6 7 8 9 10 11 12 13 14 15 16 17 18 19 20 21 22 23 24 25 26 27 28 29 30 31 32 33 34 35 36 37 38 39 40 41 42 43 44 45 46 47 48 49 50

000
ASUS43 KDMX 010807
RWRIA

WEATHER ROUNDUP FOR IOWA
NATIONAL WEATHER SERVICE DES MOINES IA
300 AM CDT MON SEP 01 2014

NOTE: "FAIR" INDICATES FEW OR NO CLOUDS BELOW 12,000 FEET WITH NO
SIGNIFICANT WEATHER AND/OR OBSTRUCTIONS TO VISIBILITY.

* - THESE STATIONS ARE NOT NWS STATIONS...THUS NOT UNDER NWS
QUALITY CONTROL.  THEY ALSO DO NOT REPORT WEATHER SUCH
AS PRECIPITATION OR FOG.

IAZ001>003-012>014-020>022-031>034-043>046-010900-
   NORTHWEST IOWA

CITY           SKY/WX    TMP DP  RH WIND       PRES   REMARKS
CARROLL *      MOCLDY    68  64  88 SW12G22   29.70S
CHEROKEE *     CLOUDY    63  63 100 SW7       29.70S
DENISON *      CLOUDY    66  66 100 SW8       29.69S
LE MARS *      FOG       63  63 100 CALM      29.71R VSB 1/4
ORANGE CITY *  PTCLDY    64  61  88 NW3       29.69S
SHELDON *      CLOUDY    63  63 100 CALM      29.67F FOG
SIOUX CITY     PTCLDY    62  60  93 W3        29.71R
SPENCER        CLOUDY    64  63  96 S5        29.69S
STORM LAKE *   MOCLDY    63  63 100 SW7       29.70S
$$

IAZ055>058-069>071-079>083-090>094-010900-
   SOUTHWEST IOWA

CITY           SKY/WX    TMP DP  RH WIND       PRES   REMARKS
ATLANTIC *     CLOUDY    68  64  88 S12G18    29.72F
AUDUBON *      MOCLDY    70  66  88 S12G18    29.73F
CLARINDA *     CLOUDY    68  64  88 S13       29.76F
COUNCIL BLFS * CLOUDY    66  66 100 S12       29.70F
CRESTON *      CLOUDY    66  64  94 S20       29.77S
HARLAN  *      CLOUDY    66  66 100 S12       29.75F
LAMONI         CLOUDY    67  64  90 SW12      29.80R
RED OAK *      CLOUDY    68  64  88 S15G21    29.73F
SHENANDOAH *   CLOUDY    68  66  94 S12G18    29.72F
$$

IAZ047>049-059>061-072>074-084-010900-
   CENTRAL IOWA

CITY           SKY/WX    TMP DP  RH WIND       PRES   REMARKS
AMES           CLOUDY    65  65 100 S5        29.71R
ANKENY *       CLOUDY    66  64  94 S7        29.73R
CHARITON *     CLOUDY    66  64  94 S5        29.78R
DES MOINES     CLOUDY    69  64  84 S8        29.73R
GRINNELL*      CLOUDY    64  63  94 SW7       29.77R
KNOXVILLE *    CLOUDY    66  63  88 SW7       29.77R
MARSHALLTOWN   CLOUDY    65  63  93 SE8       29.71R
PELLA *        CLOUDY    66  64  94 SW7       29.78R
PERRY *        CLOUDY    68  64  88 S10       29.72S
$$

IAZ004>006-015-016-023>025-035-036-010900-
   NORTH CENTRAL IOWA

CITY           SKY/WX    TMP DP  RH WIND       PRES   REMARKS
ALGONA *       CLOUDY    66  66 100 S13       29.69R
CLARION *      CLOUDY    64  64 100 S9        29.70R
ESTHERVILLE    CLOUDY    63  63 100 SW9       29.68S
FORT DODGE *   CLOUDY    66  64  94 SW8G20    29.71R THUNDER
MASON CITY     CLOUDY    64  63  96 S10G21    29.70S
FOREST CITY *  CLOUDY    64  64 100 S12G20    29.69R
IOWA FALLS *   RAIN      64  63  94 SE9       29.71R
$$

IAZ007>011-017>019-026>030-037>042-050>054-066-010900-
   NORTHEAST IOWA

CITY           SKY/WX    TMP DP  RH WIND       PRES   REMARKS
CEDAR RAPIDS   RAIN      65  65 100 SE10      29.77F FOG
CHARLES CITY * MOCLDY    64  63  94 S7G15     29.71S
CLINTON *      CLOUDY    66  63  88 NW16      29.85R
DECORAH *      CLOUDY    64  63  94 S9G16     29.67R
DUBUQUE        RAIN      64  63  96 S5        29.83F FOG
MONTICELLO *   LGT RAIN  64  64 100 E14       29.75F
OELWEIN *      CLOUDY    64  63  94 S12       29.74R
WATERLOO       CLOUDY    65  63  93 SE12      29.69F
$$

IAZ064-065-067-068-078-010900-
   EAST CENTRAL IOWA

CITY           SKY/WX    TMP DP  RH WIND       PRES   REMARKS
DAVENPORT      TSTM      66  63  90 NW14      29.84R
IOWA CITY      CLOUDY    66  66 100 SE8       29.79F
MT. PLEASANT * CLOUDY    66  64  94 NE7       29.79F
MUSCATINE *    LGT RAIN  66  64  94 NE10      29.80F
QUAD CITIES    TSTM      67  64  90 NW10G21   29.82R
$$

IAZ062-063-075>077-085>089-095>099-010900-
   SOUTHEAST IOWA

CITY           SKY/WX    TMP DP  RH WIND       PRES   REMARKS
BURLINGTON     LGT RAIN  67  65  93 N9        29.82F
FAIRFIELD *    DRIZZLE   66  64  94 E14G22    29.76F
FORT MADISON * PTCLDY    70  66  88 N5        29.82F
KEOKUK *       PTCLDY    75  68  78 NW13      29.80F
OSKALOOSA *      N/A     64  64 100 S10       29.77R
CENTERVILLE *  LGT RAIN  66  66 100 S12       29.76F
OTTUMWA        CLOUDY    65  63  93 SE10      29.76R
WASHINGTON *   CLOUDY    66  66 100 E12       29.75F
$$

ABBREVIATIONS USED IN REMARKS
   TC - TEMPERATURES IN CELSIUS
  WCI - WIND CHILL INDEX
   HX - HEAT INDEX
  VSB - VISIBILITY
$$



USA.gov is the U.S. government's official web portal to all federal, state and local government web resources and services.